Location: Grand Rapids
(42.9630°N, 85.6680°W)
Time: 15:57:13
(UTC-04:00)

A-11 Canister half - Pass Details

Date: 04 June 2024
Orbit: 1524 x 1683 km, 47.3° (Epoch: 28 April)

Event Time Altitude Azimuth Distance (km) Brightness Sun altitude
Rises 20:00:25 0° 245° (WSW) 4,668 12.3 11.8°
Reaches altitude 10° 20:03:26 10° 246° (WSW) 3,685 11.8 11.3°
Maximum altitude 20:12:44 89° 333° (NNW) 1,537 9.3 9.7°
Drops below altitude 10° 20:22:14 10° 68° (ENE) 3,750 10.7 8.1°
Sets 20:25:20 0° 69° (ENE) 4,754 11.1 7.6°
